928  
ASUS44 KMOB 252213  
RWRMOB  
REGIONAL WEATHER ROUNDUP  
NATIONAL WEATHER SERVICE MOBILE AL  
400 PM CST SAT JAN 25 2020  
 
NOTE: "FAIR" INDICATES FEW OR NO CLOUDS BELOW 12,000 FEET WITH NO  
SIGNIFICANT WEATHER AND/OR S TO VISIBILITY
.  
 
* THESE STATIONS ARE PART OF THE UNIVERSITY OF SOUTH ALABAMA  
MESONET AND ARE NOT UNDER NWS OR FAA QUALITY CONTROL.
 
 
ALZ061>064-252300-  
COASTAL ALABAMA  
 
CITY SKY/WX TMP DP RH WIND PRES REMARKS
 
MOBILE REG APT FAIR 60 31 33 NW7 30.13R  
BROOKLEY FIELD FAIR 57 43 59 S5 30.14R  
USA CAMPUS* N/A 61 34 36 W3 N/A  
DOG RIVER* N/A 55 45 67 SE6 30.15R  
 
 
CITY SKY/WX TMP DP RH WIND PRES REMARKS
 
GULF SHORES FAIR 57 40 54 W9 30.12R  
 

 
 
ALZ051>060-252300-  
INTERIOR SOUTHWEST AND SOUTH CENTRAL ALABAMA  
 
CITY SKY/WX TMP DP RH WIND PRES REMARKS
 
GREENVILLE NOT AVBL  
EVERGREEN FAIR 60 32 34 NW7 30.11R  
ATMORE* N/A 57 32 38 NW8 30.13S  
ANDALUSIA/OPP FAIR 61 34 36 NW10 30.10R  
ANDALUSIA* N/A 57 34 41 W8 30.10R  
FLORALA APT FAIR 59 34 39 VRB3 30.12R  
FLORALA* N/A 57 34 41 W5 30.10R  
 

 
 
FLZ001>006-252300-  
WESTERN FLORIDA PANHANDLE  
 
CITY SKY/WX TMP DP RH WIND PRES REMARKS
 
PENSACOLA FAIR 57 43 59 S10 30.10S  
NAS PENSACOLA PTSUNNY 58 44 60 S10 30.11S  
MILTON FAIR 58 35 42 NW9 30.11R  
WHTNG S FIELD NOT AVBL  
 
 
CITY SKY/WX TMP DP RH WIND PRES REMARKS
 
JAY* N/A 57 30 35 NW6 30.12R  
DUKE FIELD FAIR 60 34 38 NW9 30.10R  
CRESTVIEW FAIR 60 34 37 NW9 30.12R  
VALPARAISO FAIR 61 34 37 N7 30.09S  
DESTIN FAIR 57 43 59 SW7 30.11S  
 

 
 
MSZ076-079-252300-  
INTERIOR SOUTHEAST MISSISSIPPI  
 
CITY SKY/WX TMP DP RH WIND PRES REMARKS
 
LEAKESVILLE* N/A 59 28 31 NW5 30.14  
AGRICOLA* N/A N/A N/A N/A CALM 30.12  
 

 
 
MARINE OBSERVATIONS  
 
STATION/POSITION TIME TEMP WIND PRES WAVE
 
AIR SEA DIR/SP/G HT/PER  
(UTC) (F) (DEG/KT/KT) (MB) (FT/S)  
PETIT BOIS ISLND 2118 54 220/ 7/ 8 1020.1  
GRAND BAY 2030 55 200/ 8 1021.0F  
KATRINA CUT 2130 53 220/ 6 1020.7S  
CEDAR POINT 2130 53 200/ 7 1019.6F  
E DAUPHIN ISLAND 2200 54 200/ 5/ 7 1020.3S  
USCG MOBILE BAY 2130 62 54 160/ 6/ 9 1020.1S  
STATE DOCKS 2118 61 54 1019.7  
MEAHER PARK 2130 57 270/ 6 1020.3F  
WEEKS BAY 2045 60 1020.0S  
FORT MORGAN 2130 53 220/ 7/ 8 1020.3R  
12 S ORANGE BCH 2150 56 62 270/ 10/ 12 1020.3F 1/ 3  
PENSACOLA BAY 2130 54 160/ 6/ 8 1019.9F  
64 S DAUPHIN ISL 2200 57 68 20/ 4/ 6 1021.2  
 

 
 
SELECTED LOCATIONS ACROSS THE REGION  
 
CITY SKY/WX TMP DP RH WIND PRES REMARKS
 
NEW ORLEANS PTSUNNY 64 33 31 CALM 30.15R  
GULFPORT FAIR 58 41 53 VRB3 30.13R  
PASCAGOULA AP FAIR 62 40 44 SW6 30.13R  
PASCAGOULA* N/A 57 43 58 W2 30.13  
HATTIESBURG NOT AVBL  
LAUREL FAIR 60 34 37 N7 30.14R  
MERIDIAN FAIR 57 33 40 W8 30.13R  
JACKSON FAIR 58 34 40 CALM 30.14R  
MONTGOMERY FAIR 55 35 47 W12 30.12R  
TROY FAIR 55 34 45 NW9 30.10R  
ASHFORD* N/A 57 34 41 W8 30.10R  
DOTHAN FAIR 57 35 43 NW10 30.11S  
PANAMA CITY FAIR 60 36 40 W6 30.09R  
 

 
 
 
 
CLICK HERE TO GO TO PREVIOUS BULLETINS.

The Nexlab AL Page
The Nexlab FL Page
The Nexlab MS Page Main Text Page